Regional Weather Roundup
Issued by NWS Mobile, AL

Home | Current Version | Previous Version | Text Only | Print | Product List | Glossary On
Versions: 1 2 3 4 5 6 7 8 9 10 11 12 13 14 15 16 17 18 19 20 21 22 23 24 25 26 27 28 29 30 31 32 33 34 35 36 37 38 39 40 41 42 43 44 45 46 47 48 49 50
000
ASUS44 KMOB 271510
RWRMOB
REGIONAL WEATHER ROUNDUP
NATIONAL WEATHER SERVICE MOBILE AL
900 AM CST FRI FEB 27 2015

NOTE: "FAIR" INDICATES FEW OR NO CLOUDS BELOW 12,000 FEET WITH NO
      SIGNIFICANT WEATHER AND/OR OBSTRUCTIONS TO VISIBILITY.

  * THESE STATIONS ARE PART OF THE UNIVERSITY OF SOUTH ALABAMA
    MESONET AND ARE NOT UNDER NWS OR FAA QUALITY CONTROL.

ALZ061>064-271600-
COASTAL ALABAMA

CITY           SKY/WX    TMP DP  RH WIND       PRES   REMARKS
MOBILE REG APT MOSUNNY   37  29  72 N13       30.40S
BROOKLEY FIELD SUNNY     41  30  65 N15       30.40F
USA CAMPUS*      N/A     39  30  70 E5        30.40S
DOG RIVER*     NOT AVBL


CITY           SKY/WX    TMP DP  RH WIND       PRES   REMARKS
MOUNT VERNON*    N/A     37  28  70 E8        30.43S
SARALAND*      NOT AVBL
BAY MINETTE*   NOT AVBL
LOXLEY*          N/A     37  32  81 VRB14     30.39S
ROBERTSDALE*     N/A     39  30  70 E7        30.38F
FAIRHOPE*        N/A     39  30  70 N12       30.38F
ELBERTA*         N/A     39  30  70 N7        30.37R
FOLEY*         NOT AVBL
GRAND BAY*       N/A     39  30  70 VRB10     30.37F
DAUPHIN ISLND* NOT AVBL
BON SCOUR NWR* NOT AVBL
GULF SHORES    FAIR      40  31  72 NE9       30.38S

$$

ALZ051>060-271600-
INTERIOR SOUTHWEST AND SOUTH CENTRAL ALABAMA

CITY           SKY/WX    TMP DP  RH WIND       PRES   REMARKS
GREENVILLE     SUNNY     37  27  67 NE13      30.40R
EVERGREEN      SUNNY     38  28  67 N15G21    30.41R
CASTLEBERRY*   NOT AVBL
ATMORE*          N/A     37  30  75 VRB14     30.41S
DIXIE*           N/A     39  32  75 CALM      30.35R
ANDALUSIA/OPP  SUNNY     45  28  51 VRB7      30.37S
ANDALUSIA*       N/A     37  30  75 N14       30.35F
FLORALA APT    SUNNY     43  30  60 N9        30.39R
FLORALA*         N/A     41  30  65 NW6       30.34R

$$

FLZ001>006-271600-
WESTERN FLORIDA PANHANDLE

CITY           SKY/WX    TMP DP  RH WIND       PRES   REMARKS
PENSACOLA      MOSUNNY   40  31  70 N12G18    30.38R
NAS PENSACOLA  PTSUNNY   42  33  70 N16       30.37R
MILTON         MOSUNNY   41  30  65 VRB7      30.39R
WHTNG S FIELD  PTSUNNY   45  31  58 N10       30.39R


CITY           SKY/WX    TMP DP  RH WIND       PRES   REMARKS
WALNUT HILL*   NOT AVBL
JAY*             N/A     37  28  70 VRB8      30.39R
DUKE FIELD     PTSUNNY   41  69 100 N9        30.35S
CRESTVIEW      MOSUNNY   43  31  62 NE8G18    30.39R
VALPARAISO     PTSUNNY   41  31  66 N14       30.35S
DESTIN         MOSUNNY   42  33  70 N9        30.37R

$$

MSZ076-079-271600-
INTERIOR SOUTHEAST MISSISSIPPI

CITY           SKY/WX    TMP DP  RH WIND       PRES   REMARKS
LEAKESVILLE*     N/A     36  28  75 NE12      30.43R
AGRICOLA*      NOT AVBL

$$

MARINE OBSERVATIONS

STATION/POSITION TIME  TEMP    WIND        PRES    WAVE
                       AIR SEA DIR/SP/G            HT/PER
                 (UTC) (F)     (DEG/KT/KT) (MB)    (FT/S)
PASCAGOULA       1500   38      20/ 15/ 23 1028.4F
PETIT BOIS ISLND 1500   38      30/ 21/ 26 1028.8R
GRAND BAY        1400   34      20/ 11     1029.0S
KATRINA CUT      1400   38      40/ 21     1028.8F
CEDAR POINT      1400   37      30/ 17     1028.1F
E DAUPHIN ISLAND 1354   38      10/ 25/ 28 1028.3R
MIDDLE BAY LIGHT 1400   38      20/ 25     1027.4F
USCG MOBILE BAY  1500   37 51   30/ 14/ 18 1028.4F
STATE DOCKS      1500   40 47              1029.3R
MEAHER PARK      1400   37     350/  9     1029.8S
WEEKS BAY        1400   37                   N/A
FORT MORGAN      1500   38      50/ 20/ 23 1027.9F
12 S ORANGE BCH  1500   42 61   20/ 17/ 21 1027.6R   4/ 4
PENSACOLA BAY    1500   42 54   10/  8/ 16 1029.1R
64 S DAUPHIN ISL 1428   47 64   40/ 23/ 29 1027.6R   6/ 7
67 S FORT MORGAN 1400   49      40/ 23     1026.8R

$$

SELECTED LOCATIONS ACROSS THE REGION

CITY           SKY/WX    TMP DP  RH WIND       PRES   REMARKS
NEW ORLEANS    PTSUNNY   41  31  67 NE17      30.40R
GULFPORT       SUNNY     38  29  70 N15G26    30.38F
PASCAGOULA AP  SUNNY     40  30  67 N14       30.39F
PASCAGOULA*    NOT AVBL
HATTIESBURG    CLOUDY    35  29  78 N9        30.45R WCI  28
LAUREL         CLOUDY    34  25  69 N12       30.44R WCI  25
MERIDIAN       CLOUDY    32  24  72 N13       30.47R WCI  22
JACKSON        CLOUDY    31  23  72 NE12      30.47R WCI  22
MONTGOMERY     SUNNY     38  28  67 N15       30.45R
TROY           SUNNY     40  29  64 N15       30.39F
KINSTON*       NOT AVBL
GENEVA*          N/A     43  30  61 NE9       30.39R
ASHFORD*         N/A     37  30  75 N14       30.35F
DOTHAN         SUNNY     42  31  64 N14       30.39R
PANAMA CITY    MOSUNNY   43  33  68 N9        30.35R

$$




USA.gov is the U.S. government's official web portal to all federal, state and local government web resources and services.